Location: Newark
(52.3500°N, 175.9667°E)
Time: 19:42:48
(UTC+00:00)

S-56A Canister/Altair - Pass Details

Date: 10 December 2021
Orbit: 633 x 2499 km, 38.9° (Epoch: 19 January)

Event Time Altitude Azimuth Distance (km) Brightness Sun altitude
Rises 07:32:52 0° 183° (S) 6,061 12.1 -30.7°
Reaches altitude 10° 07:41:02 10° 156° (SSE) 4,754 11.3 -31.9°
Enters shadow 07:41:35 10° 154° (SSE) 4,689 11.2 -32.0°
